When you browse on this site, cookies collect data to enhance your experience and personalize the content and advertising you see.
Visit our Privacy Policy to learn more. By continuing to use the site, you agree to this use of cookies and data.
  • In Deutschland
  • Länderverzeichnis
  • Für 7 Tage
  • Wassertemperatur
  • Satellitenkarten
  • Wetterkarte
  • Widgets
  • user-avatar
    Anmelden

    Stündliche Wetter Leicester

    Heute, 17 Dezember, Montag

    Zeit Temperatur Niederschläge Wind Luftdruck Luftfeuchtigkeit
    00:00 +4°C° 0 mm 4 m/S 748 mmHg 93%
    01:00 +4°C° 0 mm 4 m/S 749 mmHg 93%
    02:00 +4°C° 0 mm 4 m/S 749 mmHg 92%
    03:00 +3°C° 0 mm 4 m/S 750 mmHg 91%
    04:00 +3°C° 0 mm 4 m/S 751 mmHg 91%
    05:00 +3°C° 0 mm 4 m/S 752 mmHg 91%
    06:00 +2°C° 0 mm 3 m/S 752 mmHg 92%
    07:00 +2°C° 0 mm 3 m/S 753 mmHg 92%
    08:00 +2°C° 0 mm 3 m/S 754 mmHg 92%
    09:00 +2°C° 0 mm 3 m/S 754 mmHg 92%
    10:00 +4°C° 0 mm 3 m/S 755 mmHg 89%
    11:00 +5°C° 0 mm 4 m/S 755 mmHg 86%
    12:00 +6°C° 0 mm 4 m/S 755 mmHg 83%
    13:00 +6°C° 0 mm 4 m/S 755 mmHg 84%
    14:00 +6°C° 0 mm 4 m/S 755 mmHg 86%
    15:00 +6°C° 0 mm 4 m/S 755 mmHg 88%
    16:00 +6°C° 0 mm 4 m/S 755 mmHg 89%
    17:00 +6°C° 0 mm 4 m/S 755 mmHg 91%
    18:00 +6°C° 0 mm 4 m/S 755 mmHg 92%
    19:00 +6°C° 0 mm 5 m/S 755 mmHg 93%
    20:00 +6°C° 0 mm 5 m/S 755 mmHg 93%
    21:00 +6°C° 0 mm 5 m/S 755 mmHg 93%
    22:00 +7°C° 0 mm 6 m/S 754 mmHg 93%
    23:00 +7°C° 0 mm 6 m/S 754 mmHg 92%

    Morgen, 18 Dezember, Dienstag

    Zeit Temperatur Niederschläge Wind Luftdruck Luftfeuchtigkeit
    00:00 +8°C° 0 mm 6 m/S 754 mmHg 91%
    01:00 +8°C° 0 mm 6 m/S 753 mmHg 91%
    02:00 +8°C° 0 mm 6 m/S 753 mmHg 90%
    03:00 +8°C° 0 mm 7 m/S 752 mmHg 90%
    04:00 +8°C° 0.1 mm 7 m/S 752 mmHg 89%
    05:00 +9°C° 0.1 mm 7 m/S 751 mmHg 88%
    06:00 +9°C° 0.1 mm 8 m/S 751 mmHg 88%
    07:00 +9°C° 0.1 mm 8 m/S 750 mmHg 87%
    08:00 +9°C° 0.1 mm 8 m/S 750 mmHg 86%
    09:00 +7°C° 0.1 mm 9 m/S 749 mmHg 84%
    10:00 +7°C° 0.1 mm 9 m/S 748 mmHg 82%
    11:00 +7°C° 0.1 mm 10 m/S 747 mmHg 79%
    12:00 +7°C° 0.1 mm 10 m/S 747 mmHg 76%
    13:00 +7°C° 0.4 mm 10 m/S 746 mmHg 78%
    14:00 +7°C° 0.4 mm 10 m/S 745 mmHg 80%
    15:00 +6°C° 0.4 mm 10 m/S 744 mmHg 82%
    16:00 +6°C° 0.8 mm 10 m/S 744 mmHg 83%
    17:00 +6°C° 0.8 mm 9 m/S 743 mmHg 84%
    18:00 +6°C° 0.8 mm 9 m/S 743 mmHg 84%
    19:00 +6°C° 1 mm 8 m/S 743 mmHg 85%
    20:00 +6°C° 1 mm 7 m/S 743 mmHg 86%
    21:00 +7°C° 1 mm 5 m/S 744 mmHg 86%
    22:00 +6°C° 0.1 mm 5 m/S 744 mmHg 88%
    23:00 +6°C° 0.1 mm 4 m/S 744 mmHg 89%

    übermorgen, 19 Dezember, Mittwoch

    Zeit Temperatur Niederschläge Wind Luftdruck Luftfeuchtigkeit
    00:00 +5°C° 0.1 mm 4 m/S 745 mmHg 91%
    01:00 +5°C° 0 mm 4 m/S 745 mmHg 91%
    02:00 +5°C° 0 mm 4 m/S 746 mmHg 92%
    03:00 +5°C° 0 mm 4 m/S 746 mmHg 92%
    04:00 +5°C° 0.1 mm 4 m/S 746 mmHg 93%
    05:00 +5°C° 0.1 mm 3 m/S 746 mmHg 93%
    06:00 +4°C° 0.1 mm 3 m/S 747 mmHg 94%
    07:00 +4°C° 0.1 mm 3 m/S 747 mmHg 94%
    08:00 +4°C° 0.1 mm 3 m/S 747 mmHg 94%
    09:00 +4°C° 0.1 mm 3 m/S 748 mmHg 94%
    10:00 +5°C° 0 mm 3 m/S 748 mmHg 89%
    11:00 +7°C° 0 mm 3 m/S 748 mmHg 84%
    12:00 +7°C° 0 mm 4 m/S 748 mmHg 79%
    13:00 +6°C° 0 mm 4 m/S 748 mmHg 80%
    14:00 +6°C° 0 mm 4 m/S 748 mmHg 81%
    15:00 +7°C° 0 mm 3 m/S 748 mmHg 82%
    16:00 +5°C° 0 mm 4 m/S 748 mmHg 83%
    17:00 +5°C° 0 mm 4 m/S 748 mmHg 85%
    18:00 +4°C° 0 mm 4 m/S 748 mmHg 87%
    19:00 +4°C° 0 mm 4 m/S 748 mmHg 87%
    20:00 +4°C° 0 mm 4 m/S 748 mmHg 88%
    21:00 +4°C° 0 mm 4 m/S 748 mmHg 88%
    22:00 +4°C° 0 mm 4 m/S 748 mmHg 88%
    23:00 +4°C° 0 mm 4 m/S 748 mmHg 89%

    20 Dezember, Donnerstag

    Zeit Temperatur Niederschläge Wind Luftdruck Luftfeuchtigkeit
    00:00 +3°C° 0 mm 4 m/S 748 mmHg 89%
    01:00 +3°C° 0 mm 4 m/S 749 mmHg 90%
    02:00 +3°C° 0 mm 4 m/S 749 mmHg 90%
    03:00 +3°C° 0 mm 4 m/S 749 mmHg 90%
    04:00 +3°C° 0.1 mm 5 m/S 748 mmHg 90%
    05:00 +3°C° 0.1 mm 5 m/S 748 mmHg 89%
    06:00 +3°C° 0.1 mm 5 m/S 748 mmHg 88%
    07:00 +4°C° 0.2 mm 6 m/S 748 mmHg 88%
    08:00 +4°C° 0.2 mm 6 m/S 748 mmHg 87%
    09:00 +4°C° 0.2 mm 6 m/S 748 mmHg 87%
    10:00 +5°C° 0.3 mm 6 m/S 748 mmHg 85%
    11:00 +5°C° 0.3 mm 6 m/S 747 mmHg 83%
    12:00 +5°C° 0.3 mm 7 m/S 747 mmHg 81%
    13:00 +5°C° 0.1 mm 6 m/S 747 mmHg 80%
    14:00 +5°C° 0.1 mm 6 m/S 747 mmHg 79%
    15:00 +6°C° 0.1 mm 5 m/S 748 mmHg 79%
    16:00 +6°C° 0 mm 5 m/S 748 mmHg 81%
    17:00 +5°C° 0 mm 5 m/S 748 mmHg 83%
    18:00 +5°C° 0 mm 5 m/S 748 mmHg 85%
    19:00 +4°C° 0 mm 4 m/S 749 mmHg 87%
    20:00 +4°C° 0 mm 4 m/S 749 mmHg 88%
    21:00 +4°C° 0 mm 4 m/S 749 mmHg 90%
    22:00 +4°C° 0 mm 4 m/S 749 mmHg 90%
    23:00 +4°C° 0 mm 3 m/S 748 mmHg 91%

    21 Dezember, Freitag

    Zeit Temperatur Niederschläge Wind Luftdruck Luftfeuchtigkeit
    00:00 +3°C° 0 mm 3 m/S 748 mmHg 91%
    01:00 +4°C° 0.2 mm 3 m/S 747 mmHg 93%
    02:00 +4°C° 0.2 mm 3 m/S 747 mmHg 94%
    03:00 +5°C° 0.2 mm 2 m/S 746 mmHg 95%
    04:00 +5°C° 1.7 mm 3 m/S 745 mmHg 96%
    05:00 +5°C° 1.7 mm 3 m/S 744 mmHg 97%
    06:00 +5°C° 1.7 mm 3 m/S 743 mmHg 98%
    07:00 +6°C° 2.1 mm 4 m/S 743 mmHg 97%
    08:00 +7°C° 2.1 mm 4 m/S 742 mmHg 96%
    09:00 +7°C° 2.1 mm 5 m/S 742 mmHg 96%
    10:00 +8°C° 0 mm 6 m/S 742 mmHg 88%
    11:00 +7°C° 0 mm 8 m/S 743 mmHg 80%
    12:00 +7°C° 0 mm 9 m/S 744 mmHg 72%
    13:00 +7°C° 0 mm 9 m/S 744 mmHg 73%
    14:00 +7°C° 0 mm 8 m/S 745 mmHg 73%
    15:00 +7°C° 0 mm 8 m/S 746 mmHg 74%
    16:00 +6°C° 0 mm 7 m/S 746 mmHg 77%
    17:00 +6°C° 0 mm 7 m/S 747 mmHg 80%
    18:00 +6°C° 0 mm 7 m/S 747 mmHg 84%
    19:00 +6°C° 0.1 mm 7 m/S 747 mmHg 84%
    20:00 +6°C° 0.1 mm 7 m/S 747 mmHg 85%
    21:00 +8°C° 0.1 mm 7 m/S 747 mmHg 86%
    22:00 +8°C° 0.1 mm 7 m/S 747 mmHg 84%
    23:00 +8°C° 0.1 mm 7 m/S 747 mmHg 83%

    22 Dezember, Samstag

    Zeit Temperatur Niederschläge Wind Luftdruck Luftfeuchtigkeit
    00:00 +6°C° 0.1 mm 8 m/S 747 mmHg 82%
    01:00 +6°C° 0 mm 8 m/S 748 mmHg 81%
    02:00 +6°C° 0 mm 8 m/S 749 mmHg 80%
    03:00 +6°C° 0 mm 8 m/S 749 mmHg 80%
    04:00 +6°C° 0 mm 7 m/S 750 mmHg 80%
    05:00 +6°C° 0 mm 7 m/S 751 mmHg 80%
    06:00 +6°C° 0 mm 7 m/S 751 mmHg 81%
    07:00 +5°C° 0 mm 6 m/S 752 mmHg 82%
    08:00 +6°C° 0 mm 5 m/S 753 mmHg 84%
    09:00 +5°C° 0 mm 4 m/S 753 mmHg 85%
    10:00 +6°C° 0 mm 5 m/S 754 mmHg 83%
    11:00 +7°C° 0 mm 5 m/S 754 mmHg 81%
    12:00 +8°C° 0 mm 5 m/S 754 mmHg 79%
    13:00 +7°C° 0 mm 4 m/S 754 mmHg 81%
    14:00 +7°C° 0 mm 4 m/S 755 mmHg 84%
    15:00 +8°C° 0 mm 3 m/S 755 mmHg 86%
    16:00 +8°C° 0 mm 3 m/S 755 mmHg 89%
    17:00 +7°C° 0 mm 3 m/S 755 mmHg 91%
    18:00 +7°C° 0 mm 3 m/S 755 mmHg 94%
    19:00 +7°C° 0 mm 3 m/S 755 mmHg 95%
    20:00 +7°C° 0 mm 3 m/S 755 mmHg 95%
    21:00 +7°C° 0 mm 3 m/S 755 mmHg 96%
    22:00 +7°C° 0 mm 3 m/S 755 mmHg 96%
    23:00 +7°C° 0 mm 3 m/S 755 mmHg 96%
    Mehr zeigen